| time (UTC) | temp C | wind direction | speed KPH | gust KPH | rain 1hr cm | rain 24hr cm | rain mn cm | humidity % | barometer mb |
| 20260507231550 | 14 | 217 | 0.0 | 0.0 | 0.00 | 0.00 | 0.00 | 43 | 1011.4 |
| 20260507230052 | 15 | 326 | 0.0 | 1.6 | 0.00 | 0.00 | 0.00 | 43 | 1011.3 |
| 20260507224554 | 15 | 221 | 0.0 | 3.2 | 0.00 | 0.00 | 0.00 | 43 | 1011.2 |
| 20260507223049 | 15 | 244 | 0.0 | 0.0 | 0.00 | 0.00 | 0.00 | 44 | 1011.0 |
| 20260507221548 | 15 | 303 | 0.0 | 0.0 | 0.00 | 0.00 | 0.00 | 43 | 1010.8 |
| 20260507220048 | 15 | 290 | 0.0 | 1.6 | 0.00 | 0.00 | 0.00 | 45 | 1010.8 |
| 20260507214551 | 16 | 342 | 0.0 | 1.6 | 0.00 | 0.00 | 0.00 | 42 | 1010.6 |
| 20260507213047 | 16 | 217 | 0.0 | 0.0 | 0.00 | 0.00 | 0.00 | 45 | 1010.6 |
| 20260507211546 | 16 | 259 | 0.0 | 1.6 | 0.00 | 0.00 | 0.00 | 43 | 1010.6 |
| 20260507210047 | 15 | 218 | 0.0 | 1.6 | 0.00 | 0.00 | 0.00 | 45 | 1010.4 |
| 20260507204550 | 16 | 238 | 0.0 | 3.2 | 0.00 | 0.00 | 0.00 | 42 | 1010.5 |
| 20260507203045 | 16 | 232 | 0.0 | 1.6 | 0.00 | 0.00 | 0.00 | 39 | 1010.3 |
| 20260507201552 | 16 | 244 | 0.0 | 4.8 | 0.00 | 0.00 | 0.00 | 43 | 1010.6 |
| 20260507200040 | 15 | 233 | 0.0 | 3.2 | 0.00 | 0.00 | 0.00 | 42 | 1010.6 |
| 20260507194540 | 16 | 234 | 0.0 | 1.6 | 0.00 | 0.00 | 0.00 | 45 | 1010.8 |
| 20260507193038 | 16 | 234 | 0.0 | 0.0 | 0.00 | 0.00 | 0.00 | 48 | 1011.0 |
| 20260507191538 | 16 | 283 | 0.0 | 1.6 | 0.00 | 0.00 | 0.00 | 46 | 1011.0 |
| 20260507190037 | 16 | 242 | 0.0 | 1.6 | 0.00 | 0.00 | 0.00 | 44 | 1010.9 |
| 20260507184535 | 17 | 209 | 0.0 | 1.6 | 0.00 | 0.00 | 0.00 | 47 | 1011.1 |
| 20260507183033 | 16 | 190 | 0.0 | 3.2 | 0.00 | 0.00 | 0.00 | 47 | 1011.2 |
| 20260507181532 | 16 | 205 | 0.0 | 3.2 | 0.00 | 0.00 | 0.00 | 46 | 1011.3 |
| 20260507180036 | 16 | 271 | 0.0 | 1.6 | 0.00 | 0.00 | 0.00 | 48 | 1011.4 |
| 20260507174539 | 16 | 247 | 0.0 | 4.8 | 0.00 | 0.00 | 0.00 | 51 | 1011.6 |
| 20260507173030 | 16 | 150 | 0.0 | 3.2 | 0.00 | 0.00 | 0.00 | 44 | 1011.7 |
| 20260507171524 | 16 | 200 | 0.0 | 3.2 | 0.00 | 0.00 | 0.00 | 50 | 1012.1 |
| 20260507170038 | 16 | 292 | 0.0 | 1.6 | 0.00 | 0.00 | 0.00 | 50 | 1012.3 |
| 20260507164521 | 16 | 232 | 0.0 | 6.4 | 0.00 | 0.00 | 0.00 | 48 | 1012.3 |
| 20260507163017 | 15 | 260 | 0.0 | 0.0 | 0.00 | 0.00 | 0.00 | 48 | 1012.4 |
| 20260507161515 | 15 | 244 | 0.0 | 4.8 | 0.00 | 0.00 | 0.00 | 47 | 1012.5 |
| 20260507160015 | 15 | 238 | 0.0 | 0.0 | 0.00 | 0.03 | 0.00 | 46 | 1012.7 |
| 20260507154510 | 13 | 229 | 0.0 | 1.6 | 0.00 | 0.03 | 0.00 | 51 | 1012.7 |
| 20260507153009 | 14 | 318 | 0.0 | 0.0 | 0.00 | 0.03 | 0.00 | 50 | 1012.8 |
| 20260507151507 | 13 | 229 | 0.0 | 1.6 | 0.00 | 0.03 | 0.00 | 53 | 1013.1 |
| 20260507150003 | 14 | 355 | 0.0 | 1.6 | 0.00 | 0.05 | 0.00 | 56 | 1013.3 |
| 20260507144559 | 13 | 144 | 0.0 | 1.6 | 0.00 | 0.05 | 0.00 | 56 | 1013.4 |
| 20260507143058 | 13 | 241 | 0.0 | 1.6 | 0.00 | 0.05 | 0.00 | 54 | 1013.6 |
| 20260507141555 | 12 | 253 | 0.0 | 0.0 | 0.00 | 0.05 | 0.00 | 57 | 1014.0 |
| 20260507140053 | 12 | 252 | 0.0 | 0.0 | 0.00 | 0.05 | 0.00 | 59 | 1014.3 |
| 20260507134552 | 12 | 254 | 0.0 | 0.0 | 0.00 | 0.10 | 0.00 | 63 | 1014.4 |
| 20260507133045 | 12 | 260 | 0.0 | 0.0 | 0.00 | 0.10 | 0.00 | 60 | 1014.5 |
| 20260507131553 | 11 | 209 | 0.0 | 0.0 | 0.00 | 0.10 | 0.00 | 64 | 1014.6 |
| 20260507130035 | 11 | 98 | 0.0 | 0.0 | 0.00 | 0.10 | 0.00 | 71 | 1014.5 |
| 20260507124534 | 10 | 32 | 0.0 | 0.0 | 0.00 | 0.13 | 0.00 | 82 | 1014.5 |
| 20260507123027 | 8 | 17 | 0.0 | 0.0 | 0.00 | 0.13 | 0.00 | 90 | 1014.7 |
| 20260507121524 | 7 | 17 | 0.0 | 0.0 | 0.00 | 0.13 | 0.00 | 93 | 1014.7 |
| 20260507120036 | 6 | 17 | 0.0 | 0.0 | 0.00 | 0.20 | 0.00 | 93 | 1014.6 |
| 20260507114521 | 5 | 17 | 0.0 | 0.0 | 0.00 | 0.20 | 0.00 | 93 | 1014.6 |
| 20260507113015 | 4 | 16 | 0.0 | 0.0 | 0.00 | 0.20 | 0.00 | 93 | 1014.5 |
| 20260507111511 | 3 | 16 | 0.0 | 0.0 | 0.00 | 0.20 | 0.00 | 93 | 1014.3 |
| 20260507110008 | 2 | 16 | 0.0 | 0.0 | 0.00 | 0.46 | 0.00 | 92 | 1013.9 |
| 20260507104510 | 2 | 16 | 0.0 | 0.0 | 0.00 | 0.46 | 0.00 | 92 | 1013.9 |
| 20260507103006 | 2 | 16 | 0.0 | 0.0 | 0.00 | 0.46 | 0.00 | 91 | 1013.9 |
| 20260507101503 | 2 | 16 | 0.0 | 0.0 | 0.00 | 0.46 | 0.00 | 91 | 1013.8 |
| 20260507100001 | 2 | 16 | 0.0 | 0.0 | 0.00 | 0.64 | 0.00 | 91 | 1013.6 |
| 20260507094600 | 2 | 16 | 0.0 | 0.0 | 0.00 | 0.64 | 0.00 | 91 | 1013.6 |
| 20260507093100 | 3 | 16 | 0.0 | 0.0 | 0.00 | 0.64 | 0.00 | 90 | 1013.4 |
| 20260507091559 | 3 | 16 | 0.0 | 0.0 | 0.00 | 0.64 | 0.00 | 90 | 1013.6 |
| 20260507090057 | 3 | 16 | 0.0 | 0.0 | 0.00 | 0.64 | 0.00 | 90 | 1013.7 |
| 20260507084555 | 3 | 16 | 0.0 | 0.0 | 0.00 | 0.81 | 0.00 | 90 | 1013.9 |
| 20260507083050 | 4 | 16 | 0.0 | 0.0 | 0.00 | 0.81 | 0.00 | 89 | 1013.8 |
| 20260507081550 | 5 | 16 | 0.0 | 0.0 | 0.00 | 0.81 | 0.00 | 89 | 1013.7 |
| 20260507080049 | 5 | 16 | 0.0 | 0.0 | 0.00 | 0.81 | 0.00 | 89 | 1013.5 |
| 20260507074558 | 5 | 16 | 0.0 | 0.0 | 0.00 | 0.89 | 0.00 | 88 | 1013.6 |
| 20260507073040 | 6 | 16 | 0.0 | 0.0 | 0.00 | 0.89 | 0.00 | 88 | 1013.6 |
| 20260507071536 | 6 | 16 | 0.0 | 0.0 | 0.00 | 0.89 | 0.00 | 87 | 1013.4 |
| 20260507070033 | 7 | 16 | 0.0 | 0.0 | 0.00 | 0.89 | 0.00 | 87 | 1013.4 |
| 20260507064530 | 7 | 16 | 0.0 | 0.0 | 0.00 | 1.02 | 0.00 | 87 | 1013.4 |
| 20260507063029 | 8 | 16 | 0.0 | 0.0 | 0.00 | 1.02 | 0.00 | 87 | 1013.4 |
| 20260507061525 | 8 | 16 | 0.0 | 0.0 | 0.00 | 1.02 | 0.00 | 87 | 1013.4 |
| 20260507060025 | 8 | 16 | 0.0 | 0.0 | 0.00 | 1.07 | 0.00 | 87 | 1013.5 |
| 20260507054523 | 8 | 16 | 0.0 | 0.0 | 0.00 | 1.07 | 0.00 | 87 | 1013.9 |
| 20260507053021 | 8 | 16 | 0.0 | 0.0 | 0.00 | 1.07 | 0.00 | 87 | 1013.9 |
| 20260507051520 | 8 | 16 | 0.0 | 0.0 | 0.00 | 1.07 | 0.00 | 87 | 1014.0 |
| 20260507050025 | 8 | 16 | 0.0 | 0.0 | 0.00 | 1.12 | 0.00 | 87 | 1014.0 |
| 20260507044516 | 8 | 16 | 0.0 | 0.0 | 0.00 | 1.12 | 0.00 | 87 | 1013.8 |
| 20260507043015 | 9 | 16 | 0.0 | 0.0 | 0.00 | 1.12 | 0.00 | 86 | 1013.9 |
| 20260507041512 | 9 | 16 | 0.0 | 0.0 | 0.00 | 1.12 | 0.00 | 86 | 1013.6 |
| 20260507040008 | 9 | 16 | 0.0 | 0.0 | 0.00 | 1.12 | 1.12 | 86 | 1013.7 |
| 20260507034507 | 9 | 16 | 0.0 | 0.0 | 0.00 | 1.12 | 1.12 | 85 | 1013.6 |
| 20260507033014 | 9 | 16 | 0.0 | 0.0 | 0.00 | 1.12 | 1.12 | 85 | 1013.8 |
| 20260507031506 | 10 | 16 | 0.0 | 0.0 | 0.00 | 1.12 | 1.12 | 85 | 1013.7 |
| 20260507030004 | 10 | 16 | 0.0 | 0.0 | 0.00 | 1.12 | 1.12 | 84 | 1013.3 |
| 20260507024502 | 10 | 16 | 0.0 | 0.0 | 0.00 | 1.12 | 1.12 | 84 | 1013.2 |
| 20260507023106 | 10 | 16 | 0.0 | 0.0 | 0.00 | 1.12 | 1.12 | 84 | 1013.2 |
| 20260507021602 | 10 | 16 | 0.0 | 0.0 | 0.00 | 1.12 | 1.12 | 83 | 1013.1 |
| 20260507020100 | 10 | 16 | 0.0 | 0.0 | 0.00 | 1.12 | 1.12 | 83 | 1013.1 |
| 20260507014604 | 10 | 16 | 0.0 | 0.0 | 0.00 | 1.12 | 1.12 | 86 | 1012.6 |
| 20260507013055 | 10 | 16 | 0.0 | 0.0 | 0.00 | 1.12 | 1.12 | 87 | 1012.5 |
| 20260507011554 | 11 | 16 | 0.0 | 1.6 | 0.00 | 1.12 | 1.12 | 88 | 1012.3 |
| 20260507010054 | 11 | 17 | 0.0 | 0.0 | 0.00 | 1.12 | 1.12 | 87 | 1012.0 |
| 20260507004554 | 11 | 17 | 0.0 | 0.0 | 0.00 | 1.12 | 1.12 | 87 | 1012.0 |
| 20260507003053 | 11 | 17 | 0.0 | 0.0 | 0.00 | 1.12 | 1.12 | 86 | 1012.3 |
| 20260507001559 | 11 | 17 | 0.0 | 0.0 | 0.00 | 1.12 | 1.12 | 85 | 1012.4 |
| 20260507000052 | 12 | 315 | 0.0 | 0.0 | 0.00 | 1.12 | 1.12 | 84 | 1012.8 |
| 20260506234549 | 12 | 315 | 0.0 | 0.0 | 0.00 | 1.12 | 1.12 | 82 | 1012.2 |
| 20260506233107 | 12 | 315 | 0.0 | 0.0 | 0.00 | 1.12 | 1.12 | 81 | 1012.1 |